Location: Gorze? G�rny
(49.8500°N, 19.5000°E)
Time: 04:50:14
(UTC+00:00)

deb Kosmos-1763 - Pass Details

Date: 13 May 2021
Orbit: 447 x 457 km, 74.0° (Epoch: 20 June)

Event Time Altitude Azimuth Distance (km) Brightness Sun altitude
Rises 19:33:58 0° 335° (NNW) 2,488 9.2 -10.4°
Reaches altitude 10° 19:36:04 10° 334° (NNW) 1,611 8.0 -10.6°
Maximum altitude 19:39:37 79° 248° (WSW) 474 4.0 -11.0°
Enters shadow 19:42:25 15° 162° (SSE) 1,308 5.7 -11.3°
